Regional Weather Roundup
Issued by NWS

Home | Current Version | Previous Version | Text Only | Print | Product List | Glossary Off
Versions: 1 2 3 4 5 6 7 8 9 10 11 12 13 14 15 16 17 18 19 20 21 22 23 24 25 26 27 28 29 30 31 32 33 34 35 36 37 38 39 40 41 42 43 44 45 46 47 48 49 50

000
ASUS43 KBIS 230202
RWRND

NORTH DAKOTA REGIONAL WEATHER ROUNDUP
NATIONAL WEATHER SERVICE BISMARCK ND
800 PM CST SUN JAN 22 2017

NOTE: "FAIR" INDICATES FEW OR NO CLOUDS BELOW 12,000 FEET WITH NO
SIGNIFICANT WEATHER AND/OR OBSTRUCTIONS TO VISIBILITY.


NDZ001>003-009>011-017-230300-
NORTHWEST NORTH DAKOTA

CITY           SKY/WX    TMP DP  RH WIND       PRES   REMARKS
WILLISTON      CLOUDY    29  23  78 W9        29.82F
MINOT          CLOUDY    31  27  85 W8        29.77F
MINOT AFB      CLOUDY    30  27  88 W13       29.77S WCI  20
$$

NDZ018>021-031>035-040>046-230300-
SOUTHWEST NORTH DAKOTA

CITY           SKY/WX    TMP DP  RH WIND       PRES   REMARKS
BISMARCK       CLOUDY    32  27  81 W7        29.84S
DICKINSON      CLOUDY    26  23  88 W13       29.80S WCI  15
GARRISON         N/A     30  25  81 W10       29.79F
HETTINGER ARPT CLOUDY    25  22  88 NW10      29.84S WCI  15
$$

NDZ004>008-012>016-024-026-027-054-230300-
NORTHEAST NORTH DAKOTA

CITY           SKY/WX    TMP DP  RH WIND       PRES   REMARKS
GRAND FORKS    CLOUDY    34  29  82 W5        29.76S
GRND FRKS AFB  CLOUDY    33  30  88 NW8       29.77R
DEVILS LAKE    CLOUDY    30  27  88 W14       29.77R WCI  19
$$

NDZ022-023-025-028>030-036>039-047>053-230300-
SOUTHEAST NORTH DAKOTA

CITY           SKY/WX    TMP DP  RH WIND       PRES   REMARKS
FARGO          CLOUDY    34  31  88 W6        29.79S FOG
JAMESTOWN      CLOUDY    32  29  88 NW12      29.79S
$$





USA.gov is the U.S. government's official web portal to all federal, state and local government web resources and services.